SCP
0 0 0 0 1 1 1 0 1 1 1 1 1 1 1 1 1 1 1 1 0 0 0 0 0 0 0 0 1 1 1 1 1 1 1 1 1 1 1 1 1 1 1
0 0 0 0 1 1 1 1 1 1 1 1 1 1 1 1 1 1 1 0 0 0 0 0 0 0 1 1 1 1 1 1 1 1 1 1 1 1 1 1 1 1 1
0 0 0 0 0 1 1 1 1 1 1 1 1 1 1 1 1 1 0 0 0 0 0 0 0 0 1 1 1 1 1 1 1 1 1 1 1 1 1 1 1 1 1
0 0 0 0 0 1 1 1 1 1 1 1 1 1 0 0 1 0 0 0 0 0 0 0 0 0 1 1 1 1 1 1 1 1 1 1 1 1 1 1 1 1 1
0 0 0 0 1 1 1 1 1 1 1 1 1 1 0 0 0 0 0 0 0 0 0 0 0 0 1 1 1 1 1 1 1 1 1 1 1 1 1 1 1 1 1
0 0 0 0 1 1 1 1 1 1 1 1 1 1 0 0 0 0 1 1 1 0 0 0 0 0 0 1 1 1 1 1 1 1 1 1 1 1 1 1 1 1 1
0 0 0 0 0 1 0 0 1 1 1 1 1 1 1 1 1 1 1 1 0 0 0 0 0 0 0 0 0 0 1 1 1 1 1 1 1 1 1 1 1 1 1
0 0 0 0 0 0 0 0 0 1 1 1 1 1 1 1 1 1 0 0 0 0 0 0 0 0 0 0 0 0 0 1 1 1 1 1 1 1 1 1 1 1 1
0 0 0 0 0 0 0 0 0 0 1 1 1 1 1 1 1 1 0 0 0 0 0 0 0 0 0 0 0 0 0 0 0 1 1 1 1 1 1 1 1 1 1
0 0 0 0 0 0 0 0 0 0 0 1 1 1 0 0 0 0 0 0 0 0 0 0 0 0 0 0 0 0 0 0 0 1 1 1 1 1 1 1 1 1 1
0 0 0 0 0 0 0 0 0 0 0 1 1 0 0 0 0 0 0 0 0 0 0 0 0 0 0 0 0 0 0 0 0 0 1 1 1 1 1 1 1 1 1
0 0 0 0 0 0 0 0 0 0 0 0 0 0 0 0 0 0 0 0 0 0 0 0 0 0 0 0 0 0 0 0 0 0 0 1 1 1 1 1 1 1 1
0 0 0 0 0 0 0 0 0 1 1 1 0 0 0 0 0 0 0 0 0 0 0 0 0 0 0 0 0 0 0 0 0 0 0 1 1 1 1 1 1 1 1
0 0 0 0 0 0 0 0 0 0 1 1 0 0 0 0 0 0 0 0 0 0 0 0 0 0 0 0 0 0 0 0 0 0 0 0 1 2 1 1 1 1 1
0 0 0 0 0 0 0 0 0 0 1 1 0 0 0 0 0 0 0 0 0 0 0 0 0 0 0 0 0 0 0 0 0 0 0 0 1 1 1 1 1 1 1
0 0 0 0 0 0 0 0 0 0 0 0 0 0 0 0 0 0 0 0 0 0 0 0 0 0 0 0 0 0 0 0 0 0 0 0 1 1 1 1 1 1 1
0 0 0 0 0 0 0 0 0 0 0 0 0 0 0 0 0 0 0 0 0 0 0 0 0 0 0 0 0 0 0 0 0 0 0 0 1 1 1 1 1 1 1
0 0 0 0 0 0 0 0 0 0 0 0 0 0 0 0 0 0 0 0 0 0 0 0 0 0 0 0 0 0 0 0 0 0 0 0 1 1 1 1 1 1 1
0 0 0 0 0 0 0 0 0 0 0 0 0 0 0 0 0 0 0 0 0 0 0 0 0 0 0 0 0 0 0 0 0 0 0 0 0 1 1 1 1 1 0
0 0 0 0 0 0 0 0 0 0 0 0 0 0 0 0 0 0 0 0 0 0 0 0 0 0 0 0 0 0 0 0 0 0 0 0 0 0 0 0 0 0 0
0 0 0 0 0 0 0 0 0 0 0 0 0 0 0 0 0 0 0 0 0 0 0 0 0 0 0 0 0 0 0 0 0 0 0 0 0 0 0 0 0 0 0
0 0 0 0 0 0 0 0 0 0 0 0 0 0 0 0 0 0 0 0 0 0 0 0 0 0 0 0 0 0 0 0 0 0 0 0 0 0 0 0 0 0 0
0 0 0 0 0 0 0 0 0 0 0 0 0 0 0 0 0 0 0 0 0 0 0 0 0 0 0 0 0 0 0 0 0 0 0 0 0 0 0 0 0 0 0
0 0 0 0 0 0 0 0 0 0 0 0 0 0 0 0 0 0 0 0 0 0 0 0 0 0 0 0 0 0 0 0 0 0 0 0 0 0 0 0 0 0 0
0 0 0 0 0 0 0 0 0 0 0 0 0 0 0 0 0 0 0 0 0 0 0 0 0 0 0 0 0 0 0 0 0 0 0 0 0 0 0 0 0 0 0
0 0 0 0 0 0 0 0 0 0 0 0 0 0 0 0 0 0 0 0 0 0 0 0 0 0 0 0 0 0 0 0 0 0 0 0 0 0 0 0 0 0 0
Wind_Speed
2 3 6 8 10 10 11 11 11 11 11 11 11 11 11 11 12 12 12 12 12 12 12 13 13 12 12 12 13 13 13 12 12 11 11 11 11 12 12 12 11 8 13
4 4 7 8 10 10 11 11 11 11 11 11 11 11 11 11 11 12 12 12 12 12 12 12 12 12 12 12 12 12 12 12 11 11 11 9 10 11 12 12 11 8 13
6 5 6 9 11 11 11 11 11 11 11 10 10 10 11 11 11 11 11 11 11 11 11 12 12 12 12 11 11 11 11 11 11 11 10 5 6 10 11 11 12 12 12
6 5 5 9 10 11 11 11 11 11 11 10 10 10 10 10 11 11 11 11 11 11 11 12 12 11 11 11 11 11 11 11 11 10 5 5 4 9 11 11 11 12 12
6 5 5 10 10 11 11 10 10 10 10 10 10 10 10 10 10 10 10 10 10 11 11 11 11 12 11 11 11 11 11 12 11 8 5 4 4 9 11 11 11 11 11
6 5 5 9 10 10 10 10 10 10 10 10 10 10 10 10 10 10 10 10 10 11 11 11 11 11 11 11 11 11 11 11 9 5 4 4 4 9 10 11 10 10 10
5 4 5 8 9 9 9 10 9 9 9 9 9 9 10 10 10 10 10 10 10 10 10 10 10 10 10 10 11 12 11 10 6 5 4 4 5 9 10 9 9 9 9
6 5 4 7 8 8 8 9 9 8 9 8 9 9 9 9 9 9 10 10 9 9 9 9 9 9 9 10 10 11 11 9 6 5 4 3 6 8 9 9 8 8 8
5 5 4 3 4 6 7 7 8 7 8 8 8 8 8 8 8 9 9 9 9 9 9 8 8 8 8 9 10 10 10 10 5 3 4 3 6 7 7 7 7 7 7
4 4 4 3 3 3 4 6 7 7 7 7 7 8 8 7 7 8 7 8 8 8 8 8 8 8 8 8 8 9 9 8 4 3 2 3 6 6 6 6 6 6 6
3 2 3 3 3 2 3 4 5 5 5 6 6 7 6 3 3 4 6 7 7 7 7 7 7 7 7 7 8 8 7 3 3 2 1 4 5 5 5 5 5 5 5
4 3 3 3 3 2 2 2 2 2 2 2 2 3 3 3 3 4 6 6 6 6 6 6 7 7 5 3 4 6 3 3 3 2 2 5 4 4 4 4 4 4 4
5 4 3 4 3 3 2 2 1 1 1 2 2 2 2 3 2 3 2 3 3 4 3 3 4 3 2 2 2 2 2 2 2 2 3 5 4 3 3 4 4 4 4
5 5 4 4 4 4 3 2 2 2 1 1 2 2 2 2 2 2 1 1 1 1 1 1 1 2 2 2 2 2 3 2 2 2 3 5 4 3 3 3 3 3 3
5 5 5 4 5 4 4 3 3 2 2 2 2 2 3 2 2 2 1 1 1 1 1 1 1 1 2 2 2 2 2 2 2 2 2 5 5 4 3 2 2 2 2
6 6 5 5 5 5 4 3 3 3 2 2 2 2 3 3 3 2 2 1 1 1 1 1 1 1 1 1 2 2 2 2 2 2 2 3 5 5 4 3 2 2 2
7 6 6 6 5 5 5 4 3 3 3 3 3 3 3 3 3 3 2 1 1 1 2 2 2 2 2 2 2 2 2 2 2 2 2 2 2 4 5 4 3 3 3
6 6 6 5 5 5 4 4 3 3 3 3 3 3 3 3 3 3 2 1 1 1 2 2 2 2 2 2 1 2 2 2 2 2 2 2 2 2 3 5 4 4 4
7 7 7 6 6 6 4 3 3 3 3 3 2 3 3 4 4 3 2 2 2 2 2 2 2 2 2 1 1 1 1 1 1 2 2 2 2 1 1 3 5 5 4
6 6 7 6 6 5 3 3 2 2 2 2 2 3 3 3 4 4 3 3 3 2 2 2 2 2 2 1 1 2 1 1 1 1 1 2 2 3 2 2 2 3 5
5 6 7 7 6 5 4 4 3 3 2 2 2 3 3 3 4 4 3 3 3 3 3 3 2 2 2 1 2 2 2 1 1 1 1 1 2 2 2 2 2 1 2
6 6 6 7 6 6 4 4 3 3 2 2 2 2 3 3 4 4 4 3 3 3 3 3 3 2 1 1 1 1 1 3 2 1 1 1 2 2 2 3 2 2 2
6 7 6 7 6 6 5 3 2 2 1 2 2 2 3 3 3 4 4 4 4 4 4 4 4 4 2 1 1 2 2 2 2 2 1 1 2 2 2 2 2 2 2
7 6 6 6 6 5 5 5 6 5 4 4 3 3 3 3 4 4 4 4 4 4 4 4 4 2 3 2 0 0 0 2 1 2 3 2 2 2 2 3 2 2 2
5 5 5 5 5 5 6 6 6 5 3 2 2 3 3 2 3 3 4 4 4 3 4 4 3 3 2 3 2 1 1 0 1 1 2 3 3 2 2 3 2 2 2
4 4 4 5 5 5 6 6 7 7 5 4 4 4 3 2 2 3 3 4 4 3 4 4 4 4 3 3 2 2 2 2 2 2 2 3 3 3 3 2 2 2 2
Wind_Direction
179 184 153 131 122 118 117 112 106 103 100 97 94 92 90 88 86 84 83 81 79 76 75 74 73 72 71 71 70 68 66 64 64 64 65 68 72 75 75 72 68 66 71
163 168 146 132 126 120 119 116 111 108 105 102 98 95 92 89 89 86 85 81 80 77 76 74 73 71 69 70 70 69 66 62 63 64 61 58 68 74 75 74 72 74 73
139 147 142 130 127 122 119 118 113 110 107 104 100 97 94 91 91 90 87 83 81 78 76 76 75 71 69 68 67 65 66 66 67 64 58 45 59 74 77 75 72 73 71
132 130 134 129 128 125 121 119 117 113 110 106 103 102 98 94 94 93 89 86 85 82 79 77 75 72 66 64 64 64 65 67 68 62 51 44 54 72 76 74 70 69 68
119 121 133 128 128 128 124 119 118 116 113 109 106 104 102 99 98 95 91 87 85 84 81 79 75 71 65 63 64 64 65 68 64 57 47 43 54 73 75 73 70 67 66
115 119 133 130 128 127 126 121 117 117 114 111 109 106 104 102 99 97 94 91 88 85 82 79 75 71 67 66 62 62 66 69 64 52 46 46 58 74 75 74 72 67 65
116 112 124 127 128 127 127 125 121 118 116 114 111 107 104 101 100 100 99 94 92 89 86 83 79 73 69 66 63 59 58 64 65 54 47 50 66 75 76 75 73 69 67
117 108 106 118 121 125 123 124 122 117 119 116 113 108 104 101 101 101 99 97 92 90 88 85 81 78 72 67 64 58 52 55 60 54 46 49 71 76 75 73 71 68 68
107 104 95 99 113 118 118 118 117 116 116 115 114 110 102 98 98 100 98 97 93 90 87 83 79 76 74 70 66 57 50 50 48 42 49 47 70 75 73 71 68 66 68
105 110 105 93 90 99 111 115 112 111 111 112 111 106 101 99 98 99 97 97 94 89 86 83 77 74 72 69 63 56 47 42 39 32 41 54 66 75 75 73 70 67 65
122 124 120 116 106 104 114 116 110 110 109 108 108 106 98 90 90 91 90 93 93 90 87 83 77 73 68 63 57 51 46 37 32 21 33 56 65 74 76 75 72 70 68
171 166 152 145 139 131 126 113 103 95 100 102 101 109 103 98 92 91 88 87 88 87 87 83 78 70 60 51 47 44 39 34 33 16 26 57 66 68 73 77 75 73 72
182 175 175 166 156 150 139 133 123 111 106 107 107 111 107 99 96 81 82 76 71 67 61 66 62 54 52 52 49 43 37 36 33 16 18 42 53 60 71 81 82 79 79
176 183 182 176 166 162 151 148 145 142 137 128 124 120 117 116 113 112 100 90 79 74 80 69 70 65 61 54 55 47 41 41 34 15 9 30 39 52 66 82 79 71 74
185 191 189 180 175 167 157 159 156 161 156 149 139 145 134 132 140 133 125 114 108 101 105 97 92 86 72 59 58 60 51 46 34 22 7 19 27 34 43 58 65 62 58
197 197 191 186 182 172 167 165 165 168 162 155 155 165 154 147 149 148 142 140 133 129 121 116 110 98 82 75 66 66 65 54 44 38 26 8 21 28 29 31 40 45 42
199 193 189 188 182 178 174 172 166 171 165 165 168 164 154 147 151 153 148 153 156 136 114 97 85 79 76 69 62 50 59 52 45 45 36 18 4 16 22 24 24 25 23
192 188 189 187 184 184 180 174 169 173 173 176 171 164 157 151 153 148 142 155 150 120 106 111 103 87 72 64 49 33 35 34 41 47 45 28 11 11 6 19 16 11 8
192 186 185 187 186 186 181 171 168 171 175 176 170 167 167 160 156 149 151 157 141 120 111 124 96 99 94 73 60 42 22 13 24 46 45 31 16 13 10 12 11 6 356
188 185 185 184 185 179 171 160 157 158 171 171 174 175 168 166 159 152 153 153 144 130 120 114 105 81 93 104 76 42 358 343 24 42 24 28 21 16 21 19 9 358 351
180 182 183 183 183 172 172 178 180 188 186 187 183 175 169 167 163 157 154 155 151 150 148 137 117 98 76 72 76 25 353 355 16 17 17 26 14 1 4 7 9 358 338
187 186 184 185 184 182 185 183 176 169 180 182 176 176 176 172 169 163 158 163 160 149 140 139 125 120 104 84 109 97 342 332 341 340 4 359 348 348 346 352 357 353 342
193 191 190 189 186 185 176 155 132 116 115 155 183 192 192 180 174 167 168 166 166 162 165 167 159 146 147 175 111 139 155 233 309 323 328 325 344 337 327 331 333 339 334
202 196 192 188 186 182 172 171 171 176 186 195 191 190 186 183 182 179 176 175 171 168 167 175 171 161 145 164 186 359 160 160 170 308 318 324 333 316 308 312 314 316 315
194 193 191 183 186 182 179 184 187 189 189 172 161 170 179 185 187 189 182 178 176 176 176 174 172 172 168 165 168 162 132 45 127 185 279 313 325 301 293 287 284 293 298
187 187 183 180 188 187 185 189 193 189 177 165 173 182 188 188 187 190 185 186 185 183 182 182 182 181 183 167 166 162 160 165 189 192 231 280 296 298 294 279 275 280 293